Home   Weather   Rabat   Past weeks

Flag for Morocco Past Weather in Rabat, Morocco — Yesterday and Last 2 Weeks

Now
72 °F

Passing clouds.


Feels Like: 69 °F
Forecast: 67 / 75 °F
Wind: 7 mph from North

Location: Rabat-Sale

Current Time: Sep 25, 2016 at 9:56:16 PM

Latest Report: Sep 25, 2016 at 9:00 PM


Visibility: 3 mi

Pressure: 30.04 "Hg

Humidity: 88%

Dew Point: 68 °F

Location of RabatLocation

Past Weather in Rabat — Graph

°F

Rabat Temperature Yesterday

Maximum temperature yesterday: 75 °F (at 12:00 PM)
Minimum temperature yesterday: 55 °F (at 2:30 AM)
Average temperature yesterday: 66 °F

High & Low Weather Summary for the Past Weeks

 TemperatureHumidityPressure
High81 °F (Sep 20, 12:00 PM)94% (Sep 11, 4:00 AM)32.99 "Hg (Sep 11, 4:00 AM)
Low55 °F (Sep 24, 2:30 AM)41% (Sep 14, 2:00 PM)29.89 "Hg (Sep 12, 3:30 AM)
Average69 °F76%30.05 "Hg
* Reported Sep 10 8:00 PM — Sep 25 8:30 PM, Rabat, Weather by CustomWeather, © 2016

Note: Actual official high and low records may vary slightly from our data, if they occured in-between our weather recording intervals... More about our weather records

Advertising

Rabat Weather History for the Previous 24 Hours

Scroll right to see more
 ConditionsComfort  
Time TempWeatherWind HumidityBarometerVisibility
8:30 PM
Sun, Sep 25
72 °FPassing clouds.6 mph88%30.04 "Hg3 mi
8:00 PM72 °FFog.8 mph83%30.01 "Hg2 mi
7:30 PM72 °FFog.8 mph83%30.01 "Hg2 mi
7:00 PM72 °FPassing clouds.8 mph83%30.01 "Hg3 mi
6:30 PM73 °FPassing clouds.10 mph74%30.01 "Hg4 mi
6:00 PM75 °FPartly sunny.10 mph74%29.98 "Hg5 mi
5:30 PM77 °FScattered clouds.10 mph65%29.98 "Hg5 mi
5:00 PM75 °FScattered clouds.10 mph65%29.98 "Hg5 mi
4:30 PM77 °FScattered clouds.9 mph65%29.98 "Hg5 mi
4:00 PM77 °FScattered clouds.8 mph65%29.98 "Hg5 mi
3:30 PM75 °FScattered clouds.10 mph69%30.01 "Hg5 mi
3:00 PM75 °FScattered clouds.12 mph69%30.01 "Hg5 mi
2:30 PM73 °FPartly sunny.13 mph74%30.01 "Hg5 mi
2:00 PM75 °FScattered clouds.10 mph69%30.04 "Hg5 mi
1:30 PM75 °FClear.12 mph69%30.04 "Hg5 mi
1:00 PM75 °FClear.13 mph69%30.04 "Hg5 mi
12:30 PM75 °FClear.10 mph69%30.04 "Hg4 mi
12:00 PM75 °FClear.9 mph69%30.07 "Hg5 mi
11:30 AM77 °FClear.12 mph65%30.07 "Hg5 mi
11:00 AM77 °FPassing clouds.3 mph61%30.07 "HgN/A
10:30 AM75 °FPassing clouds.5 mph69%30.07 "HgN/A
10:00 AM75 °FPassing clouds.6 mph69%30.07 "HgN/A
9:30 AM72 °FPartly sunny.3 mph78%30.07 "Hg4 mi
9:00 AM70 °FPartly sunny.1 mph88%30.07 "Hg4 mi
8:30 AM68 °FScattered clouds.1 mph94%30.07 "Hg3 mi
8:00 AM66 °FFog.1 mph94%30.07 "Hg2 mi
7:30 AM66 °FFog.1 mph94%30.07 "Hg1 mi
7:00 AM66 °FFog.No wind94%30.07 "Hg1 mi
6:30 AM68 °FScattered clouds.No wind94%30.07 "Hg3 mi
6:00 AM70 °FPartly cloudy.No wind88%30.07 "Hg3 mi
5:30 AM70 °FPartly cloudy.3 mph88%30.07 "Hg3 mi
5:00 AM70 °FPartly cloudy.No wind88%30.07 "Hg4 mi
4:30 AM70 °FMild.3 mph88%30.07 "Hg4 mi
4:00 AM70 °FPartly cloudy.3 mph88%30.07 "Hg5 mi
3:30 AM68 °FPartly cloudy.2 mph94%30.07 "Hg6 mi
3:00 AM68 °FPassing clouds.3 mph88%30.07 "Hg5 mi
2:30 AM68 °FPassing clouds.2 mph88%30.07 "Hg4 mi
2:00 AM68 °FPassing clouds.2 mph88%30.07 "Hg4 mi
1:30 AM68 °FPassing clouds.3 mph88%30.07 "Hg4 mi
1:00 AM70 °FPassing clouds.6 mph83%30.07 "Hg5 mi
12:30 AM70 °FPassing clouds.5 mph88%30.09 "Hg3 mi
12:00 AM66 °FPassing clouds.3 mph88%30.07 "Hg3 mi
11:30 PM
Sat, Sep 24
66 °FPassing clouds.2 mph88%30.07 "Hg3 mi
11:00 PM66 °FPartly cloudy.2 mph88%30.07 "Hg4 mi
10:30 PM66 °FPartly cloudy.3 mph88%30.09 "Hg4 mi
10:00 PM68 °FPartly cloudy.2 mph83%30.07 "Hg5 mi
9:30 PM68 °FPartly cloudy.3 mph83%30.07 "Hg5 mi
9:00 PM70 °FPartly cloudy.3 mph83%30.07 "Hg5 mi
Weather by CustomWeather, © 2016

See weather overviewHow to use our weather pages